Buffalo, WY

9:12 AM MDT on September 30, 2016 (GMT -0600)
Johnson County

Weather History for KBYG - January, 2014

Change the Weather History Date:

Saturday, January 25, 2014

  Actual Average Record
Temperature  
Mean Temperature 46 °F 28 °F  
Max Temperature 57 °F 38 °F 66 °F (2006)
Min Temperature 34 °F 17 °F -6 °F (2009)
Degree Days  
Heating Degree Days 19 37  
Month to date heating degree days 872 931  
Since 1 July heating degree days 3670 3978  
Cooling Degree Days 0 0  
Month to date cooling degree days 0 0  
Year to date cooling degree days 0 0  
Moisture  
Dew Point 25 °F    
Average Humidity 48    
Maximum Humidity 69    
Minimum Humidity 26    
Precipitation  
Precipitation 0.00 in 0.01 in 0.03 in (2009)
Month to date precipitation 0.15 0.32  
Year to date precipitation 0.15 0.32  
Sea Level Pressure  
Sea Level Pressure 29.97 in    
Wind  
Wind Speed 12 mph (NW)    
Max Wind Speed 41 mph    
Max Gust Speed 57 mph    
Visibility 10 miles    
Events      
T = Trace of Precipitation, MM = Missing Value Source: NWS Daily Summary

Daily Weather History Graph

Daily Weather History Graph

Search for Another Location

Airport or City:

Trip Planner

Search our weather history database for the weather conditions in past years. The results will help you decide how hot, cold, wet, or windy it might be!

Date:

Astronomy

Jan. 25, 2014 Rise Set
Actual Time 7:32 AM MST 5:06 PM MST
Civil Twilight 7:00 AM MST 5:38 PM MST
Nautical Twilight 6:25 AM MST 6:13 PM MST
Astronomical Twilight 5:51 AM MST 6:47 PM MST
Moon 2:06 AM MST (1/25) 12:09 PM MST (1/25)
Length of Visible Light 10h 37m
Length of Day
9h 34m
Waning Crescent, 33% of the Moon is Illuminated
Jan 25
Waning Crescent
Jan 30
New
Feb 6
First Quarter
Feb 14
Full
Feb 22
Last Quarter

Hourly Weather History & Observations

Time (MST) Temp. Windchill Dew Point Humidity Pressure Visibility Wind Dir Wind Speed Gust Speed Precip Events Conditions
12:53 AM 44.1 °F 37.7 °F 27.0 °F 51% 30.11 in 10.0 mi NNW 12.7 mph - N/A   Overcast
1:53 AM 44.1 °F 35.4 °F 27.0 °F 51% 30.12 in 10.0 mi North 21.9 mph 36.8 mph N/A   Overcast
2:53 AM 44.1 °F 37.4 °F 26.1 °F 49% 30.11 in 10.0 mi NNW 13.8 mph 27.6 mph N/A   Overcast
3:53 AM 41.0 °F 35.2 °F 26.1 °F 55% 30.12 in 10.0 mi NNW 9.2 mph - N/A   Mostly Cloudy
4:53 AM 39.0 °F 34.8 °F 27.0 °F 62% 30.11 in 10.0 mi WSW 5.8 mph - N/A   Clear
5:53 AM 34.0 °F 29.8 °F 25.0 °F 70% 30.12 in 10.0 mi SW 4.6 mph - N/A   Clear
6:53 AM 39.0 °F 36.8 °F 26.1 °F 60% 30.10 in 10.0 mi Variable 3.5 mph - N/A   Scattered Clouds
7:53 AM 37.0 °F 33.3 °F 26.1 °F 65% 30.08 in 10.0 mi SSW 4.6 mph - N/A   Clear
8:53 AM 43.0 °F 38.8 °F 26.1 °F 51% 30.02 in 10.0 mi SSE 6.9 mph - N/A   Clear
9:53 AM 48.0 °F - 26.1 °F 42% 29.98 in 10.0 mi South 10.4 mph - N/A   Clear
10:53 AM 50.0 °F - 26.1 °F 39% 29.97 in 10.0 mi SSE 4.6 mph - N/A   Clear
11:53 AM 52.0 °F - 26.1 °F 37% 29.93 in 10.0 mi Calm Calm - N/A   Clear
12:53 PM 55.0 °F - 25.0 °F 31% 29.87 in 10.0 mi North 6.9 mph - N/A   Clear
1:53 PM 55.9 °F - 25.0 °F 30% 29.84 in 10.0 mi Calm Calm - N/A   Clear
2:53 PM 55.0 °F - 21.9 °F 28% 29.82 in 10.0 mi North 11.5 mph 23.0 mph N/A   Clear
3:53 PM 55.9 °F - 23.0 °F 28% 29.83 in 10.0 mi WNW 3.5 mph - N/A   Clear
4:53 PM 48.0 °F - 24.1 °F 39% 29.86 in 10.0 mi WSW 3.5 mph - N/A   Clear
5:53 PM 46.0 °F 42.5 °F 24.1 °F 42% 29.90 in 10.0 mi NNW 6.9 mph - N/A   Clear
6:53 PM 44.1 °F 36.5 °F 23.0 °F 43% 29.89 in 10.0 mi NNW 17.3 mph 27.6 mph N/A   Clear
7:53 PM 48.9 °F - 19.0 °F 31% 29.90 in 10.0 mi NW 29.9 mph 43.7 mph N/A   Clear
8:53 PM 48.9 °F - 19.0 °F 31% 29.88 in 10.0 mi NW 27.6 mph 38.0 mph N/A   Mostly Cloudy
9:53 PM 46.9 °F - 21.9 °F 37% 29.87 in 10.0 mi NNW 35.7 mph 46.0 mph N/A   Clear
10:53 PM 43.0 °F 32.2 °F 25.0 °F 49% 29.89 in 10.0 mi NNW 32.2 mph 46.0 mph N/A   Partly Cloudy
11:53 PM 39.0 °F 29.9 °F 26.1 °F 60% 29.90 in 10.0 mi NNW 17.3 mph 26.5 mph N/A   Clear